Asheville, NC

12:23 AM EST on November 19, 2017 (GMT -0500)
Asheville Regional

Weather History for KAVL - February, 2010

Change the Weather History Date:

Saturday, February 6, 2010

  Actual Average Record
Temperature  
Mean Temperature 35 °F 39 °F  
Max Temperature 37 °F 49 °F 71 °F (1938)
Min Temperature 32 °F 28 °F 6 °F (1966)
Degree Days  
Heating Degree Days 30 26  
Month to date heating degree days 187 160  
Since 1 July heating degree days 2869 2687  
Cooling Degree Days 0 0  
Month to date cooling degree days 0 0  
Year to date cooling degree days 0 0  
Moisture  
Dew Point 31 °F    
Average Humidity 85    
Maximum Humidity 100    
Minimum Humidity 70    
Precipitation  
Precipitation 0.02 in 0.13 in 1.85 in (1897)
Month to date precipitation 2.60 0.80  
Year to date precipitation 9.60 4.47  
Snow  
Snow 0.00 in 0.10 in 7.00 in (1979)
Month to date snowfall 3.0 0.6  
Since 1 July snowfall 26.6 5.7  
Snow Depth T in    
Sea Level Pressure  
Sea Level Pressure 29.56 in    
Wind  
Wind Speed 8 mph (NNW)    
Max Wind Speed 23 mph    
Max Gust Speed 29 mph    
Visibility 4 miles    
Events Fog , Rain    
T = Trace of Precipitation, MM = Missing Value Source: NWS Daily Summary

Daily Weather History Graph

Daily Weather History Graph

Search for Another Location

Airport or City:

Trip Planner

Search our weather history database for the weather conditions in past years. The results will help you decide how hot, cold, wet, or windy it might be!

Date:

Astronomy

Feb. 06, 2010 Rise Set
Actual Time 7:25 AM EST 6:03 PM EST
Civil Twilight 6:59 AM EST 6:29 PM EST
Nautical Twilight 6:28 AM EST 7:00 PM EST
Astronomical Twilight 5:59 AM EST 7:29 PM EST
Moon 1:42 AM EST (2/6) 11:41 AM EST (2/6)
Length of Visible Light 11h 30m
Length of Day
10h 37m
Last Quarter, 43% of the Moon is Illuminated
Feb 6
Last Quarter
Feb 13
New
Feb 21
First Quarter
Feb 28
Full
Mar 7
Last Quarter

Hourly Weather History & Observations

Time (EST) Temp. Windchill Dew Point Humidity Pressure Visibility Wind Dir Wind Speed Gust Speed Precip Events Conditions
12:11 AM 33.8 °F - 33.8 °F 100% 29.50 in 2.5 mi Calm Calm - N/A   Overcast
12:23 AM 33.8 °F - 32.0 °F 93% 29.50 in 1.5 mi Calm Calm - N/A   Overcast
12:30 AM 33.8 °F - 32.0 °F 93% 29.50 in 1.0 mi Calm Calm - N/A   Overcast
12:54 AM 33.1 °F - 33.1 °F 100% 29.51 in 1.0 mi Calm Calm - N/A   Overcast
1:05 AM 33.8 °F - 32.0 °F 93% 29.49 in 0.8 mi Calm Calm - N/A   Overcast
1:54 AM 33.1 °F - 32.0 °F 96% 29.50 in 0.8 mi Calm Calm - N/A   Overcast
2:54 AM 33.1 °F - 33.1 °F 100% 29.49 in 0.5 mi Calm Calm - N/A Fog Fog
3:07 AM 33.8 °F - 33.8 °F 100% 29.48 in 0.2 mi Calm Calm - N/A Fog Fog
3:14 AM 33.8 °F - 33.8 °F 100% 29.47 in 0.5 mi Calm Calm - N/A Fog Fog
3:24 AM 33.8 °F - 33.8 °F 100% 29.47 in 0.2 mi Calm Calm - N/A Fog Fog
3:39 AM 33.8 °F - 32.0 °F 93% 29.47 in 0.5 mi Calm Calm - N/A Fog Fog
3:50 AM 33.8 °F - 32.0 °F 93% 29.46 in 0.2 mi Calm Calm - N/A Fog Fog
3:54 AM 33.1 °F - 32.0 °F 96% 29.49 in 0.5 mi Calm Calm - N/A Fog Fog
4:16 AM 33.8 °F 29.6 °F 32.0 °F 93% 29.46 in 1.2 mi South 4.6 mph - N/A   Overcast
4:37 AM 33.8 °F - 32.0 °F 93% 29.47 in 1.2 mi Calm Calm - N/A   Overcast
4:54 AM 33.1 °F - 32.0 °F 96% 29.49 in 0.8 mi Calm Calm - N/A   Overcast
5:01 AM 33.8 °F - 33.8 °F 100% 29.47 in 1.0 mi Calm Calm - N/A   Overcast
5:12 AM 33.8 °F - 33.8 °F 100% 29.47 in 2.0 mi Calm Calm - N/A   Overcast
5:20 AM 33.8 °F - 33.8 °F 100% 29.47 in 1.2 mi Calm Calm - N/A   Overcast
5:47 AM 33.8 °F - 33.8 °F 100% 29.47 in 1.2 mi Calm Calm - N/A   Overcast
5:54 AM 33.1 °F - 32.0 °F 96% 29.49 in 1.5 mi Calm Calm - N/A   Overcast
6:00 AM 33.8 °F - 33.8 °F 100% 29.47 in 3.0 mi Calm Calm - N/A   Overcast
6:14 AM 33.8 °F - 33.8 °F 100% 29.48 in 1.8 mi Calm Calm - N/A   Overcast
6:23 AM 33.8 °F - 33.8 °F 100% 29.48 in 1.0 mi Calm Calm - N/A   Overcast
6:29 AM 33.8 °F - 32.0 °F 93% 29.48 in 0.8 mi Calm Calm - N/A   Overcast
6:54 AM 33.1 °F - 33.1 °F 100% 29.51 in 0.8 mi Calm Calm - N/A   Mist
7:03 AM 33.8 °F - 33.8 °F 100% 29.49 in 1.0 mi Calm Calm - N/A   Mist
7:14 AM 32.0 °F - 32.0 °F 100% 29.49 in 0.8 mi Calm Calm - N/A   Mist
7:52 AM 33.8 °F - 32.0 °F 93% 29.50 in 0.2 mi Calm Calm - N/A Fog Fog
7:54 AM 32.0 °F - 32.0 °F 100% 29.52 in 0.2 mi Calm Calm - N/A Fog Fog
8:46 AM 33.8 °F - 33.8 °F 100% 29.51 in 0.5 mi Calm Calm - N/A Fog Fog
8:54 AM 33.1 °F - 33.1 °F 100% 29.53 in 0.8 mi Calm Calm - N/A   Overcast
8:58 AM 33.8 °F - 33.8 °F 100% 29.51 in 1.5 mi Calm Calm - N/A   Overcast
9:06 AM 33.8 °F - 33.8 °F 100% 29.52 in 2.0 mi Calm Calm - N/A   Overcast
9:17 AM 33.8 °F - 33.8 °F 100% 29.52 in 4.0 mi Calm Calm - N/A   Overcast
9:25 AM 33.8 °F - 33.8 °F 100% 29.52 in 4.0 mi Calm Calm - N/A   Overcast
9:54 AM 34.0 °F - 34.0 °F 100% 29.55 in 1.0 mi Calm Calm - N/A   Overcast
10:01 AM 33.8 °F - 33.8 °F 100% 29.53 in 5.0 mi Calm Calm - N/A   Overcast
10:39 AM 33.8 °F - 33.8 °F 100% 29.54 in 10.0 mi Calm Calm - N/A   Overcast
10:54 AM 35.1 °F 31.0 °F 33.1 °F 92% 29.57 in 10.0 mi NW 4.6 mph - N/A   Overcast
11:10 AM 35.6 °F 29.2 °F 33.8 °F 93% 29.55 in 3.0 mi NNW 8.1 mph - 0.00 in Rain Light Rain
11:45 AM 33.8 °F 29.6 °F 33.8 °F 100% 29.56 in 3.0 mi NNW 4.6 mph - 0.01 in Rain Light Rain
11:54 AM 34.0 °F 25.5 °F 33.1 °F 96% 29.58 in 3.0 mi NNW 11.5 mph - 0.01 in Rain Light Rain
12:02 PM 33.8 °F 27.0 °F 32.0 °F 93% 29.56 in 3.0 mi North 8.1 mph - 0.01 in Rain Light Rain
12:54 PM 37.0 °F 27.0 °F 30.0 °F 76% 29.58 in 3.0 mi NNW 18.4 mph 24.2 mph 0.01 in   Haze
1:01 PM 35.6 °F 27.1 °F 28.4 °F 75% 29.56 in 10.0 mi North 12.7 mph 27.6 mph N/A   Overcast
1:13 PM 35.6 °F 24.8 °F 28.4 °F 75% 29.56 in 10.0 mi North 19.6 mph 28.8 mph N/A   Overcast
1:54 PM 36.0 °F 24.7 °F 27.0 °F 70% 29.60 in 10.0 mi NNW 21.9 mph 25.3 mph N/A   Mostly Cloudy
2:16 PM 35.6 °F 27.1 °F 26.6 °F 70% 29.59 in 10.0 mi North 12.7 mph - N/A   Overcast
2:25 PM 35.6 °F 26.6 °F 26.6 °F 70% 29.60 in 10.0 mi NNW 13.8 mph 21.9 mph N/A   Mostly Cloudy
2:54 PM 35.1 °F 26.4 °F 26.1 °F 70% 29.64 in 10.0 mi North 12.7 mph 21.9 mph N/A   Overcast
3:13 PM 33.8 °F 25.3 °F 26.6 °F 75% 29.63 in 10.0 mi North 11.5 mph 19.6 mph N/A   Overcast
3:54 PM 33.1 °F 23.9 °F 27.0 °F 78% 29.68 in 10.0 mi North 12.7 mph 21.9 mph N/A   Overcast
4:08 PM 33.8 °F 24.8 °F 26.6 °F 75% 29.66 in 10.0 mi North 12.7 mph 20.7 mph N/A   Overcast
4:54 PM 33.1 °F 23.9 °F 27.0 °F 78% 29.71 in 10.0 mi North 12.7 mph 20.7 mph N/A   Overcast
5:18 PM 33.8 °F 23.9 °F 26.6 °F 75% 29.70 in 10.0 mi North 15.0 mph 20.7 mph N/A   Overcast
5:54 PM 33.1 °F 25.5 °F 27.0 °F 78% 29.75 in 10.0 mi North 9.2 mph 19.6 mph N/A   Overcast
6:54 PM 32.0 °F 23.0 °F 28.0 °F 85% 29.77 in 10.0 mi North 11.5 mph - N/A   Overcast
7:54 PM 32.0 °F 22.1 °F 28.0 °F 85% 29.80 in 10.0 mi North 13.8 mph 19.6 mph N/A   Overcast
8:54 PM 32.0 °F 22.5 °F 27.0 °F 82% 29.82 in 10.0 mi NNW 12.7 mph 19.6 mph N/A   Overcast
9:54 PM 32.0 °F 21.6 °F 27.0 °F 82% 29.86 in 10.0 mi NNW 15.0 mph 21.9 mph N/A   Overcast
10:54 PM 32.0 °F 23.0 °F 26.1 °F 79% 29.87 in 10.0 mi North 11.5 mph 19.6 mph N/A   Overcast
11:54 PM 32.0 °F 22.1 °F 26.1 °F 79% 29.89 in 10.0 mi NNW 13.8 mph 19.6 mph N/A   Overcast